Flag for Venezuela Weather past 2 weeks in Caracas, Venezuela

Now
77 °F

Passing clouds.


Feels Like: 79 °F
Forecast: 67 / 77 °F
Wind: No wind

Location: Caracas / Maiquetia Aerop. Intl. Simon Bolivar


UV Index: 10 (Very high)

Visibility: N/A


Pressure: 29.86 "Hg

Humidity: 69%

Dew point: 66 °F

Location of CaracasLocation

Historic Weather in Caracas

°F

Caracas temperature yesterday

Maximum temperature yesterday: 86 °F (at 12:30 PM)
Minimum temperature yesterday: 73 °F (at 3:30 AM)
Average temperature yesterday: 80 °F

Past Weeks' High & Low Weather Summary

 TemperatureHumidityPressure
High88 °F (Apr 4, 2:30 PM)84% (Apr 17, 4:30 PM)30.01 "Hg (Apr 17, 4:30 PM)
Low72 °F (Apr 12, 3:30 AM)20% (Apr 12, 10:30 AM)29.80 "Hg (Apr 15, 4:30 PM)
Average79 °F72%29.90 "Hg
* Reported Apr 4 2:30 AM — Apr 19 2:30 AM, Caracas, Weather by CustomWeather, © 2014

Note: Actual official high and low records may vary slightly from our data, if they occured in-between our weather recording intervals... More about our weather records

Advertising

Historic Weather Conditions — Data for Previous 24 hours

 ConditionsComfort  
Time TempWeatherWind HumidityBarometerVisibility
2:30 AM
Apr 19
77 °FPassing clouds.No wind69%29.86 "HgN/A
1:30 AM77 °FPassing clouds.2 mph74%29.89 "HgN/A
12:30 AM77 °FPassing clouds.2 mph74%29.89 "HgN/A
11:30 PM
Apr 18
77 °FPassing clouds.3 mph79%29.92 "HgN/A
10:30 PM77 °FPassing clouds.3 mph79%29.92 "HgN/A
9:30 PM77 °FPassing clouds.3 mph69%29.89 "HgN/A
8:30 PM77 °FPassing clouds.3 mph74%29.89 "HgN/A
7:30 PM77 °FPassing clouds.5 mph83%29.89 "HgN/A
6:30 PM81 °FPassing clouds.3 mph66%29.83 "HgN/A
5:30 PM82 °FScattered clouds.3 mph66%29.86 "HgN/A
4:30 PM82 °FPassing clouds.5 mph70%29.86 "HgN/A
3:30 PM84 °FPassing clouds.3 mph62%29.86 "HgN/A
2:30 PM86 °FPassing clouds.5 mph59%29.89 "HgN/A
1:30 PM86 °FPassing clouds.5 mph59%29.89 "HgN/A
12:30 PM86 °FPassing clouds.5 mph66%29.92 "HgN/A
11:30 AM84 °FPassing clouds.3 mph66%29.89 "HgN/A
10:30 AM82 °FPassing clouds.3 mph70%29.89 "HgN/A
9:30 AM82 °FPassing clouds.5 mph70%29.92 "HgN/A
8:30 AM81 °FPassing clouds.2 mph70%29.89 "HgN/A
7:30 AM77 °FScattered clouds.No wind79%29.89 "HgN/A
6:30 AM77 °FPassing clouds.No wind79%29.92 "HgN/A
5:30 AM75 °FPassing clouds.No wind74%29.92 "HgN/A
4:30 AM75 °FPassing clouds.No wind74%29.92 "HgN/A
3:30 AM73 °FPassing clouds.No wind78%29.92 "HgN/A
Weather by CustomWeather, © 2014

See weather overview